Location: Comstock Ranch
(38.0499°N, 120.2627°W)
Time: 20:08:50
(UTC+00:00)

Cosmos 1605 Rocket - Pass Details

Date: 08 September 2024
Orbit: 943 x 1006 km, 82.9° (Epoch: 10 October)

Event Time Altitude Azimuth Distance (km) Brightness Sun altitude
Rises 12:37:15 0° 354° (N) 3,706 7.2 -12.4°
Reaches altitude 10° 12:39:48 10° 355° (N) 2,745 6.5 -11.9°
Maximum altitude 12:46:06 82° 83° (E) 986 4.1 -10.7°
Drops below altitude 10° 12:52:16 10° 171° (S) 2,684 6.3 -9.5°
Sets 12:54:44 0° 172° (S) 3,619 6.9 -9.1°
